Weather Roundup
Issued by NWS

Home | Current Version | Previous Version | Text Only | Print | Product List | Glossary On
Versions: 1 2 3 4 5 6 7 8 9 10 11 12 13 14 15 16 17 18 19 20 21 22 23 24 25 26 27 28 29 30 31 32 33 34 35 36 37 38 39 40 41 42 43 44 45 46 47 48 49 50
000
NZUS93 KARX 261459
HRRWXR

CURRENT HOURLY OBSERVATIONS ACROSS
MUCH OF THE UPPER MISSISSIPPI VALLEY
NATIONAL WEATHER SERVICE LA CROSSE WI
1000 AM CDT TUE MAY 26 2015


...SOUTHEAST MINNESOTA...


CITY           SKY/WX    TMP DP  RH WIND       PRES   REMARKS
ROCHESTER      LGT RAIN  61  58  90 SW7       29.82S
ROCHESTER/MAYO CLOUDY    62  59  91 CALM      29.81S
WINONA         CLOUDY    61  59  94 SE5       29.82S
AUSTIN         RAIN      61  57  88 CALM      29.80F
ALBERT LEA     RAIN      61  59  94 CALM      29.81S
DODGE CENTER   DRIZZLE   63  59  88 SW9       29.81F
PRESTON        RAIN      58  56  94 CALM      29.82F
OWATONNA       LGT RAIN  61  57  88 CALM      29.81F
FARIBAULT      LGT RAIN  61  59  94 CALM      29.81F
$$

...ELSEWHERE IN MINNESOTA...


CITY           SKY/WX    TMP DP  RH WIND       PRES   REMARKS
MINNEAPOLIS    CLOUDY    58  56  93 VRB6      29.81F
INTNL FALLS    MOSUNNY   64  52  64 VRB5      29.85F
DULUTH         PTSUNNY   59  53  80 E9        29.86R
RED WING       CLOUDY    63  63 100 S3        29.79F
REDWOOD FALLS  LGT RAIN  56  54  93 N6        29.81F
MANKATO        CLOUDY    59  55  88 NW8       29.81F
WORTHINGTON    CLOUDY    55  52  88 N9        29.81F
FAIRMONT       CLOUDY    57  52  82 N9        29.79F
$$

...SOUTHWEST WISCONSIN...


CITY           SKY/WX    TMP DP  RH WIND       PRES   REMARKS
LA CROSSE      RAIN      63  60  90 CALM      29.81F FOG
PRAIRIE DU CHI RAIN      62  61  95 N3        29.79F
BOSCOBEL       RAIN      66  64  93 CALM      29.79F FOG
LONE ROCK      LGT RAIN  69  66  90 E7        29.80F FOG
PLATTEVILLE    CLOUDY    68  67  95 E10       29.78F
FORT MC COY    CLOUDY    64  61  91 N6        29.81F
CAMP DOUGLAS   LGT RAIN  68  68 100 VRB3      29.79F
VIROQUA        CLOUDY    64  64 100 SW12      29.85R
WIS DELLS      CLOUDY    69  64  84 S13       29.82F
$$

...ELSEWHERE IN WISCONSIN...


CITY           SKY/WX    TMP DP  RH WIND       PRES   REMARKS
MILWAUKEE      PTSUNNY   71  64  78 S16       29.87F
MADISON        CLOUDY    70  65  84 SE13      29.80F THUNDER
GREEN BAY      CLOUDY    75  68  78 S9        29.85F
EAU CLAIRE     NOT AVBL
BLACK RVR FLS  CLOUDY    64  64 100 CALM      29.82R
MEDFORD        CLOUDY    63  61  94 SE5       29.84F
WAUSAU         CLOUDY    68  63  84 S5        29.83F
WIS RAPIDS     CLOUDY    68  61  78 E3        29.83F
MARSHFIELD     CLOUDY    68  61  78 SE6       29.83F
RICE LAKE      CLOUDY    60  59  96 CALM      29.85S
$$

...NORTHEAST IOWA...


CITY           SKY/WX    TMP DP  RH WIND       PRES   REMARKS
DECORAH        RAIN      61  61 100 N6        29.80F
MASON CITY     LGT RAIN  61  59  93 NW9       29.78F
CHARLES CITY   LGT RAIN  61  61 100 NE6       29.79F
OELWEIN        RAIN      61  59  94 N13       29.77F
$$

...ELSEWHERE IN IOWA...


CITY           SKY/WX    TMP DP  RH WIND       PRES   REMARKS
DES MOINES     LGT RAIN  63  59  87 NW5       29.78R FOG
IOWA CITY      CLOUDY    67  64  90 SE9       29.73F
FORT DODGE     CLOUDY    61  57  88 NW3       29.78F
$$

...NORTHERN ILLINOIS...


CITY           SKY/WX    TMP DP  RH WIND       PRES   REMARKS
CHICAGO-OHARE  CLOUDY    71  65  81 S10       29.88F
CHICAGO-MIDWAY CLOUDY    74  66  76 SE8       29.88F
MOLINE         RAIN      66  63  90 S10G20    29.76S FOG
ROCKFORD       CLOUDY    71  64  78 SE10      29.83F
PEORIA         HVY RAIN  67  63  87 SW15G35   29.83R VSB 1/2
$$

NOTE: "FAIR" INDICATES FEW OR NO CLOUDS BELOW 12,000 FEET WITH NO
SIGNIFICANT WEATHER AND/OR OBSTRUCTIONS TO VISIBILITY. WIND
SPEEDS ARE IN MILES-PER-HOUR.



USA.gov is the U.S. government's official web portal to all federal, state and local government web resources and services.